Theta_e
315 306 304 303 306 308 309 310 310 309 310 311 310 310 310 311 312 315 317 323 328 324 323 324 325 325 325 327 329 331 331 331 332 333 336 339 340 341 341 342 344 345 345 347 347 348 348 348 349 348 348 348 348 350 350 350 351 353 353 354 353 354 355 358 357 358 355 353 354 352 348 347 349 351 351 350 352 350 349 356 358 363 360 365 367 370
313 305 305 308 309 310 310 311 311 310 309 309 309 309 309 311 310 315 315 323 326 322 321 325 323 324 327 328 330 331 331 329 331 332 335 336 337 339 342 342 341 344 347 348 346 347 348 347 349 349 349 349 346 350 351 351 352 355 353 355 356 357 356 358 360 359 356 355 354 350 348 344 344 347 346 348 350 347 348 358 361 363 361 365 367 368
306 304 307 310 312 312 312 311 310 309 307 308 308 309 309 310 314 316 317 322 324 321 318 322 321 323 326 328 330 330 328 330 332 335 339 337 339 343 342 339 342 345 344 347 346 347 347 347 348 348 348 348 349 350 351 353 354 355 354 357 358 358 358 358 361 361 355 356 356 351 348 345 342 348 349 347 349 349 348 354 360 361 360 364 366 368
303 306 310 312 312 311 310 311 309 308 308 307 307 307 307 312 310 308 314 318 321 320 318 320 319 321 326 329 328 329 328 331 333 333 335 340 340 336 341 341 342 341 341 344 346 345 346 347 349 349 350 349 350 351 352 353 355 354 355 358 359 359 360 360 362 363 360 358 359 358 354 350 347 347 351 352 351 351 350 351 359 360 359 360 363 365
305 310 314 312 311 311 308 309 309 307 305 307 307 307 307 309 312 312 313 315 318 320 320 319 317 318 321 322 324 327 329 330 331 333 334 340 340 342 343 340 343 342 342 343 346 346 346 347 348 350 351 352 350 352 352 354 354 355 355 359 360 360 360 362 364 363 362 361 360 360 358 354 351 352 350 350 348 353 353 350 357 358 357 358 360 364
307 312 314 311 310 310 309 307 308 308 305 305 307 307 308 310 310 313 314 314 312 312 317 315 308 310 320 321 322 326 327 326 330 332 332 336 339 342 339 338 342 343 347 346 345 346 347 348 350 352 352 351 352 352 354 355 356 358 357 359 362 361 361 361 363 363 363 361 360 358 354 351 347 347 348 348 347 347 350 347 349 358 356 356 358 362
308 313 312 309 308 308 308 307 309 308 305 304 305 309 309 309 308 309 311 311 307 306 314 317 307 306 316 318 322 324 324 326 331 329 332 334 336 339 338 338 340 341 346 347 346 345 346 347 349 351 352 351 352 354 356 357 358 360 360 362 362 362 361 361 363 364 363 363 361 360 356 353 350 349 353 357 353 348 349 351 350 353 358 357 355 360
310 310 310 309 308 307 306 304 308 308 305 303 309 309 308 307 306 307 310 311 310 315 317 317 313 307 308 314 321 323 322 323 325 330 330 329 333 341 339 337 341 340 342 343 344 346 347 348 350 350 352 353 352 355 356 356 358 360 362 364 365 363 362 362 364 364 363 362 362 361 358 354 352 350 353 356 355 351 353 351 351 351 354 358 357 358
309 307 308 307 307 306 305 307 310 310 306 305 309 309 307 307 306 306 307 309 311 310 307 312 315 308 307 314 321 321 319 321 322 325 328 330 334 338 340 340 343 342 344 346 346 348 347 349 350 352 352 353 354 354 355 356 358 360 362 364 365 365 364 363 365 363 363 364 362 361 358 355 355 353 352 354 353 351 354 354 355 354 352 356 360 360
311 310 310 309 307 304 308 310 310 309 305 308 310 310 309 308 307 306 305 306 308 307 303 309 312 306 306 313 314 320 319 319 321 324 327 331 331 335 336 335 336 343 345 347 344 346 351 351 351 353 354 355 354 355 357 358 358 359 362 364 365 364 364 364 366 365 365 363 362 360 359 357 355 355 354 353 354 354 355 355 359 357 356 354 360 363
312 315 314 310 307 309 310 311 311 309 309 311 309 308 307 307 307 307 305 304 303 298 302 309 311 310 303 310 313 314 317 320 322 324 327 331 333 334 336 340 340 341 342 341 345 346 352 353 353 354 353 355 354 355 357 357 357 359 360 364 364 365 364 365 365 366 364 362 361 360 360 359 358 358 356 353 355 357 357 357 358 358 356 355 355 359
309 311 310 311 313 312 312 309 311 311 311 309 307 305 305 304 307 305 304 305 296 295 302 307 309 311 302 308 315 319 322 324 323 323 325 329 331 331 338 336 337 339 342 345 343 348 352 353 353 354 354 354 354 354 355 356 357 358 360 362 364 365 365 364 364 365 363 362 361 361 361 360 361 361 356 355 355 358 359 358 357 360 359 358 355 359
304 306 311 312 315 311 309 307 308 310 310 307 306 305 299 298 300 296 300 295 295 294 302 306 308 306 307 312 317 319 320 323 325 326 326 328 330 333 335 337 336 337 344 345 344 349 351 351 352 353 355 356 356 354 355 356 357 358 360 362 363 364 365 365 366 364 364 363 361 360 361 361 363 362 361 359 357 361 360 361 359 360 359 360 357 354
302 308 308 310 312 313 310 303 303 304 307 306 304 303 299 295 295 292 296 298 298 301 304 305 309 304 311 314 319 318 321 323 324 326 328 328 331 333 334 338 336 339 342 343 347 348 352 352 353 354 355 356 356 355 355 357 358 359 360 363 364 364 366 367 366 364 364 363 362 362 361 362 362 363 363 362 358 360 362 363 361 358 358 360 359 355
295 297 303 306 305 313 310 308 307 306 307 306 308 305 302 301 298 294 296 293 295 299 302 305 303 302 303 308 319 320 322 325 325 326 328 329 331 333 333 336 336 340 342 344 344 344 350 353 355 354 355 356 357 356 355 356 358 361 361 363 365 366 367 367 366 365 363 362 363 363 362 361 361 360 361 362 363 362 362 361 360 360 357 358 361 357
299 300 306 309 310 313 309 312 312 309 307 309 309 309 304 302 307 299 303 301 300 299 300 302 300 307 308 316 319 322 322 323 324 325 326 326 328 332 336 336 336 335 341 345 345 344 353 355 355 355 355 356 358 358 356 357 359 359 361 364 366 366 366 367 367 365 364 364 364 364 363 362 362 362 362 363 366 365 363 363 361 361 361 359 359 362
301 298 306 309 311 310 311 313 311 312 300 307 308 302 305 311 308 304 305 307 306 302 300 307 305 307 312 314 316 318 319 321 322 323 324 326 327 332 333 333 334 336 340 340 342 347 353 355 356 355 356 356 357 357 357 359 360 361 363 364 366 367 367 368 368 367 366 365 364 363 362 362 362 361 361 360 364 363 365 365 362 361 361 361 360 360
296 298 306 306 305 310 313 313 313 312 312 309 304 307 312 313 311 305 298 303 301 298 300 304 302 304 304 300 313 315 316 318 320 321 323 325 327 328 330 333 336 338 341 342 345 349 353 354 356 355 356 357 357 358 358 361 362 364 364 366 366 367 366 367 367 365 364 365 363 363 362 362 363 361 361 363 363 365 364 364 365 362 362 360 358 358
303 295 302 306 306 309 312 311 309 312 313 307 307 315 305 300 299 304 302 295 296 296 299 303 305 305 306 306 310 311 313 316 319 322 322 322 324 326 327 329 332 335 338 340 344 348 350 353 354 356 356 357 358 360 360 361 361 363 364 365 366 366 367 367 366 365 365 365 362 361 361 362 362 362 363 363 365 366 364 362 363 361 361 362 361 360
303 294 297 306 305 308 309 308 300 304 311 312 312 307 312 309 304 301 302 303 303 298 298 299 303 301 309 310 311 311 314 316 317 319 320 322 323 323 325 326 327 331 336 338 342 343 342 351 354 355 355 355 357 359 359 360 360 361 363 365 366 367 369 369 367 365 364 363 361 361 363 363 364 365 364 364 365 365 364 364 363 363 358 361 360 360
298 303 292 300 306 305 300 305 302 305 303 304 305 304 306 307 311 308 307 303 301 299 299 299 297 303 310 314 314 315 315 316 316 316 319 320 322 323 324 325 327 329 333 339 339 338 341 349 352 355 356 355 357 360 360 359 360 361 362 363 365 366 366 366 365 365 364 363 362 363 362 361 363 363 363 364 365 365 366 365 365 363 360 363 360 361
297 298 293 297 298 299 300 307 307 307 308 307 305 303 306 304 302 299 299 307 304 301 297 300 299 309 312 314 314 315 317 317 318 318 318 319 320 323 324 327 328 329 332 337 340 341 344 345 351 354 355 355 356 357 358 359 360 360 361 362 363 364 365 365 364 364 364 364 362 362 362 362 363 363 364 363 364 365 365 365 364 365 364 359 361 362
301 301 299 295 297 299 303 307 309 310 309 308 308 305 308 308 307 302 295 301 304 304 306 305 302 306 316 318 317 315 316 317 319 318 318 318 320 320 323 325 328 332 331 333 336 338 340 345 348 352 355 354 354 356 358 358 358 359 360 361 362 363 364 364 363 364 365 363 363 363 364 363 364 364 364 362 364 363 363 364 366 366 364 360 360 362
303 297 295 296 300 303 305 308 309 308 308 306 307 308 307 303 306 305 304 307 304 305 302 302 300 305 314 320 318 317 319 318 320 318 319 319 320 321 322 324 329 331 335 335 336 336 340 342 350 354 355 354 355 356 357 358 359 360 360 361 362 361 363 363 363 362 364 363 363 365 365 364 364 362 362 362 362 362 362 363 366 365 364 361 359 360
294 298 296 293 293 295 298 302 303 307 306 304 304 307 308 308 308 308 309 309 303 305 305 301 296 303 313 318 319 317 317 316 316 317 319 319 320 321 323 325 326 333 335 334 336 336 339 340 348 355 355 358 356 354 357 357 358 359 359 360 360 361 363 363 364 363 364 364 363 362 363 363 362 361 362 361 360 361 361 362 363 365 364 362 359 359
296 296 296 289 287 287 287 289 293 297 301 304 306 305 308 307 307 304 301 303 298 306 308 303 303 309 314 318 316 316 316 317 317 318 319 321 322 321 321 324 334 337 336 336 338 337 337 346 353 357 359 358 355 355 358 359 358 359 360 360 361 361 362 361 362 363 364 363 362 363 364 363 361 361 361 361 360 360 362 361 360 363 364 363 360 359
295 297 297 295 293 292 295 299 301 302 301 299 302 304 306 307 307 306 304 302 300 305 304 307 308 309 310 313 315 317 317 316 315 317 317 319 321 323 327 327 327 337 337 334 338 337 346 358 356 356 359 355 354 355 357 358 358 358 360 361 361 362 361 362 362 363 364 363 362 363 364 363 361 361 362 362 360 361 362 360 358 359 362 363 360 358
295 292 294 296 296 297 298 299 302 300 298 300 300 300 303 303 304 305 303 301 309 304 299 308 312 307 310 313 315 317 317 317 316 318 319 320 321 322 323 328 335 330 338 343 346 347 346 350 357 358 357 356 355 354 356 358 357 358 359 359 361 361 360 361 361 362 364 363 362 364 364 365 364 361 363 364 365 363 361 359 358 359 361 363 361 358
294 291 294 295 294 296 297 298 300 300 300 299 299 300 300 301 301 302 302 305 308 303 300 308 311 310 312 313 315 321 322 322 321 323 324 324 324 328 329 326 324 325 330 331 338 343 345 347 357 358 356 356 355 354 355 356 357 359 360 361 362 360 361 363 361 362 363 364 363 366 368 368 366 364 365 365 366 363 362 361 361 361 362 365 362 359
296 292 294 295 293 295 296 296 298 298 298 299 300 301 302 301 301 302 304 306 306 306 308 309 311 310 314 316 318 322 325 324 324 324 325 326 327 330 330 327 325 324 326 328 335 339 345 348 353 359 358 360 356 356 353 355 358 357 358 359 359 361 361 362 362 363 363 364 365 368 369 369 370 367 367 366 366 367 365 363 363 360 360 363 363 364
294 291 294 295 293 292 295 296 297 297 297 297 299 301 301 302 303 304 306 306 306 305 308 308 309 309 315 319 320 325 326 325 324 323 322 327 330 330 331 330 331 333 333 334 338 338 344 346 350 357 360 360 358 356 354 356 358 358 357 359 359 360 361 362 364 364 365 365 367 369 370 370 370 368 368 368 368 368 368 368 366 367 367 366 366 367
296 292 295 294 289 290 294 294 295 296 297 297 298 299 300 300 300 303 302 306 304 304 306 307 306 307 313 318 319 325 323 323 323 324 324 327 331 333 331 331 332 334 335 336 339 342 345 344 347 351 356 357 356 356 355 358 357 357 356 358 358 358 360 361 362 363 366 366 368 370 371 370 370 369 369 369 369 370 369 368 367 368 367 364 365 368
294 292 290 291 288 289 293 295 294 295 294 292 295 299 301 302 303 304 305 307 308 308 305 303 304 311 314 318 319 322 323 323 324 325 328 329 330 330 332 333 334 334 334 338 340 344 346 346 345 351 354 356 355 353 354 355 355 358 358 360 360 361 360 361 362 364 366 367 369 370 371 372 371 370 369 370 371 371 370 369 368 366 365 363 366 367
296 294 291 293 287 289 293 294 296 292 286 288 300 304 304 301 302 301 302 305 308 309 306 310 311 314 316 320 320 322 323 326 328 330 328 327 326 326 330 338 340 339 338 339 344 341 345 354 357 357 352 359 358 354 355 357 355 358 359 360 362 361 364 364 364 365 365 368 369 370 372 372 372 370 370 371 372 372 370 369 368 368 367 367 368 368
296 296 292 293 289 288 292 293 289 284 287 299 303 305 306 306 306 304 305 306 307 309 310 309 312 315 321 322 322 324 326 327 329 328 328 328 329 327 330 338 342 343 344 345 347 349 353 356 357 359 358 355 354 358 356 353 355 359 359 361 360 362 366 363 364 365 366 366 369 370 371 371 372 371 372 372 372 372 371 370 370 369 368 366 366 367
295 294 295 292 291 291 289 288 280 284 297 300 302 304 307 307 307 306 303 306 309 312 315 312 314 315 318 320 321 324 325 326 327 330 329 328 337 338 338 339 340 342 343 345 347 350 353 354 357 358 360 361 351 353 357 354 354 355 358 360 360 361 363 365 366 365 367 367 368 369 371 370 370 371 372 372 372 371 370 370 370 370 369 367 365 367
299 298 296 291 293 285 288 288 288 295 294 297 298 300 303 302 304 304 299 305 313 314 316 316 318 319 319 319 321 322 325 326 324 324 331 331 331 333 334 337 339 342 344 347 348 349 353 356 357 359 361 360 356 349 355 355 354 355 357 359 359 362 362 363 364 364 366 366 368 369 370 370 369 371 371 372 371 370 370 370 370 370 371 367 365 364
299 293 297 292 290 290 286 286 287 288 284 291 301 310 310 311 316 314 308 306 315 316 317 315 315 317 316 317 319 322 324 322 318 320 328 326 327 329 332 336 340 343 345 347 350 351 353 355 358 359 357 355 354 351 358 357 355 357 360 359 361 361 360 360 361 364 366 366 368 369 371 371 371 371 370 371 370 370 370 370 371 370 371 368 365 360
300 299 298 293 290 290 287 285 284 283 289 302 305 309 310 310 313 312 307 300 311 314 314 315 314 314 313 314 317 322 322 316 315 320 320 321 323 327 331 335 338 340 344 347 349 349 350 354 357 356 358 356 350 351 359 362 357 354 357 359 359 360 358 358 362 364 366 366 368 370 370 371 371 371 370 370 370 370 370 370 371 370 371 368 366 364
296 295 294 291 291 291 289 285 284 289 288 303 307 307 309 311 312 308 295 296 307 312 313 313 312 312 313 316 319 320 318 315 318 316 318 319 322 325 331 335 336 340 343 347 350 351 353 355 356 356 355 352 352 352 359 359 356 356 357 358 359 358 358 360 363 367 369 368 369 370 370 371 372 372 370 371 371 372 371 371 370 370 369 367 367 364
292 293 292 287 289 290 288 288 290 292 300 305 308 307 309 312 308 296 291 301 310 311 311 312 311 312 314 316 318 314 314 314 314 316 317 320 322 324 327 334 336 339 343 345 348 350 351 354 354 356 355 355 357 352 355 358 356 356 359 360 360 359 359 362 366 368 369 369 368 369 370 370 371 370 370 371 370 370 369 369 369 368 368 367 365 364
290 292 293 292 288 289 290 287 287 292 304 306 309 307 312 305 295 293 302 308 311 310 310 311 310 311 313 314 315 314 312 314 315 316 317 318 320 321 324 330 333 336 341 346 348 350 352 351 354 357 356 356 353 354 356 357 360 361 362 360 359 361 362 365 367 368 370 369 368 368 368 369 371 371 369 372 372 371 369 370 369 368 367 366 366 366
291 288 286 287 291 292 292 288 286 283 298 307 308 306 307 297 299 303 305 309 310 309 309 309 310 311 313 313 314 314 312 312 314 314 314 316 316 317 319 326 329 331 336 342 347 351 353 351 353 354 354 352 353 355 355 355 360 360 362 359 363 364 365 366 367 369 370 370 367 369 370 369 369 369 368 369 371 370 368 369 369 369 369 368 367 366
298 287 288 292 296 289 288 286 286 294 301 307 306 300 303 304 306 307 306 306 310 309 309 308 308 310 312 313 312 313 313 313 313 313 313 313 314 316 319 325 329 332 336 339 345 351 353 354 355 354 353 352 354 356 357 359 360 361 361 362 366 366 366 368 368 369 369 368 368 367 367 367 369 370 369 370 371 371 370 369 368 368 368 368 365 363
296 291 292 288 295 293 292 296 302 304 304 307 308 307 307 308 308 308 307 305 305 306 309 308 308 311 312 313 314 313 312 312 312 312 312 312 313 315 318 324 328 330 333 337 343 350 353 354 354 354 354 354 358 360 362 360 360 361 363 365 369 368 366 367 368 368 368 366 366 367 368 368 369 369 368 370 371 370 368 369 368 366 367 368 365 363
298 300 301 298 295 302 302 302 304 304 305 307 307 310 307 308 309 309 308 306 307 307 308 308 309 310 312 315 313 312 313 313 313 312 313 313 314 315 321 324 327 330 334 337 342 346 352 355 355 355 357 356 358 360 364 362 360 362 364 368 368 367 367 367 367 367 367 367 366 365 366 366 366 368 367 368 369 369 369 368 365 365 366 365 364 364
297 299 296 292 299 295 290 302 301 302 305 306 306 308 309 308 308 310 308 309 308 309 309 308 309 311 313 314 313 312 313 314 313 313 314 317 316 316 319 322 326 330 333 334 337 342 347 354 353 355 356 357 357 356 355 358 359 364 367 368 366 365 368 368 368 367 367 366 365 367 366 366 364 365 365 367 367 368 368 368 367 365 364 364 362 363
290 298 292 295 295 293 293 300 302 304 306 306 307 308 306 307 308 308 308 309 310 310 311 310 310 311 313 313 314 313 314 313 312 312 312 315 317 317 319 323 326 329 332 335 336 339 342 347 350 353 356 357 361 362 360 360 363 365 366 366 365 364 369 368 368 366 367 366 365 365 365 365 366 365 364 365 366 365 365 366 366 364 364 364 362 361
293 296 287 294 292 296 299 302 301 302 304 307 308 308 308 308 307 307 308 309 310 309 310 310 310 311 312 313 314 314 314 313 313 313 313 315 318 318 319 322 325 329 332 334 335 336 339 342 346 350 354 356 360 362 366 363 362 365 366 366 366 370 369 367 370 369 369 367 367 365 367 366 365 365 365 365 366 367 381 375 365 365 366 369 368 367
293 289 293 292 289 290 291 294 298 293 295 299 300 303 306 308 308 307 307 308 309 310 310 311 311 312 312 314 314 314 314 314 315 314 314 315 318 319 321 322 324 327 331 334 335 336 336 338 341 342 346 352 356 360 361 364 365 366 364 366 367 369 367 369 369 368 368 368 367 368 365 365 364 365 365 366 363 356 335 308 300 317 367 361 319 306
289 290 290 286 287 288 295 298 299 298 298 299 301 304 306 307 308 306 307 308 310 311 312 311 311 311 312 313 314 315 315 315 315 316 315 315 317 320 323 323 323 325 329 333 333 333 333 335 338 339 340 345 352 355 358 360 362 364 366 367 369 369 369 369 365 364 365 367 366 365 366 366 366 366 368 368 368 365 357 352 336 300 297 309 310 302
Wind_Speed
10 13 15 16 15 17 19 18 17 18 15 11 14 14 15 16 14 13 13 12 13 14 17 15 15 14 14 15 17 19 16 13 12 13 12 16 13 14 13 14 14 15 17 17 20 21 22 21 19 18 17 18 19 17 18 18 18 17 15 15 14 13 14 12 11 11 10 10 9 8 9 8 8 7 6 6 5 5 4 6 5 6 4 4 4 4
13 14 16 17 19 17 17 18 18 17 17 12 12 14 14 17 15 12 13 14 12 12 13 16 16 11 5 16 16 15 17 15 15 15 15 14 16 16 16 15 16 15 13 17 18 20 22 20 22 19 17 19 20 18 19 19 19 17 17 17 15 13 13 13 12 10 10 9 9 9 9 8 8 8 7 6 6 6 5 6 5 5 5 5 5 5
15 16 16 18 17 16 14 16 18 17 17 14 12 9 11 12 14 14 15 16 14 12 11 14 16 14 21 19 11 13 13 14 18 19 19 16 14 11 13 15 14 13 14 18 20 21 21 23 23 19 18 19 20 20 20 19 19 18 17 15 15 13 14 13 12 11 10 10 9 9 8 8 7 8 7 7 7 6 6 7 7 5 5 5 5 5
14 15 18 17 16 17 16 16 16 17 15 13 12 12 10 9 11 13 13 14 18 13 11 14 15 12 15 15 14 12 11 12 13 17 16 22 19 18 17 13 13 18 16 18 19 22 22 22 21 20 19 19 19 19 19 20 20 17 15 16 15 14 14 13 13 11 11 11 9 9 8 8 7 7 7 6 6 6 6 7 7 6 6 6 5 6
14 9 16 18 17 17 18 16 15 13 14 16 15 13 12 12 12 12 10 13 10 9 7 9 13 12 12 13 14 14 14 16 17 21 22 14 16 15 15 14 15 15 16 16 19 20 21 21 22 21 19 19 20 20 20 20 19 15 19 17 17 14 14 13 13 13 11 10 10 8 8 8 7 5 6 6 6 6 6 6 7 7 7 7 6 6
16 14 12 19 19 18 18 16 16 14 13 14 19 17 13 14 13 11 16 11 14 15 16 16 11 13 14 17 16 16 17 19 14 17 17 15 9 13 13 14 13 17 17 17 19 20 21 21 20 20 20 21 20 20 20 20 20 19 18 18 17 14 14 14 15 14 11 10 10 10 9 9 8 7 7 8 8 8 8 8 7 8 8 8 7 6
13 13 14 12 19 19 19 17 16 16 12 12 13 18 19 16 13 13 14 8 12 11 11 17 16 11 13 16 16 16 20 25 22 23 18 13 18 16 16 13 15 15 13 16 19 20 22 22 22 22 21 21 21 20 19 19 20 20 19 19 18 15 14 14 15 16 12 12 10 12 11 10 10 9 8 8 8 7 7 7 7 6 8 8 8 7
12 16 16 12 15 18 16 16 15 15 13 12 7 11 17 18 17 15 13 13 11 11 15 18 15 13 11 14 17 17 19 20 21 21 18 18 17 19 15 16 17 19 19 19 20 22 23 23 24 24 23 21 21 20 20 19 19 20 20 20 19 15 15 14 14 16 14 12 12 12 11 10 10 10 9 9 8 7 5 6 7 6 7 8 7 6
14 16 18 16 16 15 16 15 13 16 15 10 10 7 6 12 17 18 13 11 11 12 12 13 16 13 13 12 15 20 21 20 20 20 20 19 17 15 15 11 15 17 18 18 18 22 24 25 24 23 23 22 21 20 20 19 18 19 19 19 19 17 16 15 17 16 15 13 13 12 11 10 9 9 9 8 8 7 7 7 7 6 6 7 7 7
9 14 17 14 12 14 12 12 15 17 15 14 14 7 8 7 11 15 14 13 12 13 16 14 16 16 15 10 12 15 19 20 19 20 20 19 20 15 17 20 19 17 16 15 20 23 24 23 24 23 22 21 20 19 19 19 18 18 18 19 20 19 16 16 18 17 17 15 13 12 12 12 10 9 8 8 9 9 8 8 7 7 6 7 7 7
12 11 14 12 13 12 13 16 17 18 15 10 15 11 7 9 9 9 12 12 12 17 17 17 19 18 12 12 14 14 14 15 17 17 17 19 18 18 17 16 14 14 16 17 19 22 22 22 22 22 23 23 21 18 20 19 19 19 19 20 21 20 16 17 18 18 18 16 14 13 13 13 12 11 10 9 9 9 9 9 9 8 7 7 7 8
19 15 12 11 13 11 14 13 14 13 14 14 10 12 8 10 10 10 10 12 14 16 15 18 18 19 17 11 12 15 15 15 16 18 20 20 21 22 19 18 18 18 16 18 20 19 20 20 21 21 22 22 22 20 20 19 19 19 19 19 21 20 18 18 18 19 18 16 15 14 14 14 12 12 10 11 11 11 11 11 10 8 8 8 8 7
16 17 11 10 12 15 15 14 12 14 13 13 12 11 12 9 9 11 11 15 15 15 10 16 18 17 21 14 10 14 16 17 17 13 15 18 21 21 21 19 17 18 18 15 15 17 18 19 21 22 22 21 20 19 21 22 20 19 19 21 21 21 19 18 19 19 19 17 16 14 14 13 12 12 12 11 11 11 11 10 10 9 9 8 8 8
12 16 19 14 11 13 14 15 12 13 14 14 13 12 13 12 12 11 12 10 11 14 15 13 17 18 12 16 19 17 13 15 16 16 16 20 19 20 17 20 20 18 19 18 13 14 17 18 19 20 21 21 20 21 21 21 19 18 19 21 22 21 20 18 18 19 19 18 16 15 14 13 12 12 12 11 11 12 10 10 10 10 10 9 10 9
12 14 18 19 14 14 18 16 14 10 13 14 12 14 12 12 10 11 10 14 14 9 14 20 14 13 18 11 13 20 18 15 15 17 16 16 18 19 22 19 16 16 20 18 19 20 20 20 21 20 21 21 21 22 22 20 19 18 19 20 22 21 21 19 20 18 19 17 17 16 14 14 13 13 13 12 10 11 11 11 11 10 10 9 9 9
15 13 11 26 16 16 17 18 17 15 12 13 14 13 14 15 10 11 8 11 11 12 12 15 16 9 10 8 15 13 19 19 14 9 12 17 16 18 18 15 17 19 19 16 16 18 19 20 20 19 20 20 20 22 21 21 20 20 19 21 23 23 22 20 20 19 19 17 16 16 16 15 14 12 12 11 10 10 11 11 10 10 10 9 8 8
9 13 7 4 23 20 19 16 18 16 13 12 14 17 15 11 14 12 12 12 13 12 13 9 11 15 10 10 11 13 15 21 20 13 11 11 12 15 17 18 20 18 18 20 19 18 18 19 20 19 20 20 21 21 21 21 22 22 20 21 22 22 21 21 21 19 19 17 17 17 17 16 15 15 15 14 14 14 12 11 11 10 11 10 9 9
10 11 9 11 12 19 19 19 18 20 17 12 15 13 12 14 14 12 11 9 11 12 10 12 15 13 15 13 13 15 14 13 19 20 16 13 12 13 14 18 17 17 17 17 16 17 19 20 22 20 19 21 22 23 23 22 22 20 20 21 22 22 23 22 21 20 19 19 18 17 18 17 16 16 16 14 14 13 12 11 10 10 10 11 10 9
9 10 9 8 11 8 11 15 17 20 22 21 13 9 14 14 17 13 10 14 12 13 9 10 13 13 13 10 11 17 18 17 14 16 19 19 17 16 16 16 17 20 17 17 18 14 16 18 20 20 22 23 22 21 22 22 22 20 20 21 23 24 24 24 20 19 17 18 15 15 17 19 17 16 15 14 13 13 12 13 12 12 11 11 11 10
7 10 12 11 11 10 12 14 17 16 20 23 22 17 12 13 14 14 13 9 9 10 10 12 13 11 10 10 13 14 17 18 19 16 17 20 21 20 18 17 17 16 15 17 15 15 16 19 21 23 22 23 23 23 22 24 22 23 22 22 21 21 20 21 20 19 19 19 17 16 17 17 16 15 15 14 13 13 13 13 13 13 13 12 11 11
9 6 13 8 12 10 14 11 13 14 15 17 17 16 12 12 11 12 12 14 11 10 9 8 11 11 10 10 13 13 14 18 19 19 17 16 17 19 19 18 17 18 15 16 19 19 20 19 20 22 22 21 21 20 19 21 23 22 21 22 22 23 24 24 22 21 19 18 18 18 19 19 18 18 16 16 15 14 13 13 12 13 12 11 11 11
9 9 12 11 12 13 14 13 17 18 18 16 15 15 15 13 15 17 17 14 15 12 7 8 9 4 11 13 13 11 9 7 12 18 18 18 19 17 15 17 17 17 18 18 18 19 15 16 18 21 19 18 19 20 22 21 21 22 23 22 22 22 22 23 22 20 19 18 18 20 20 20 19 18 15 17 16 15 14 13 13 12 12 13 12 12
5 7 10 11 11 11 13 15 13 16 19 20 17 18 20 16 14 14 13 15 13 13 12 10 8 9 7 4 5 13 12 8 7 9 14 16 18 18 16 18 18 14 17 18 19 18 18 19 20 20 21 21 21 21 22 21 21 22 23 22 21 22 23 23 22 20 18 18 18 20 19 19 18 18 18 18 16 17 16 15 14 13 13 13 13 12
7 6 8 11 13 16 18 15 16 17 18 19 18 16 17 22 18 15 14 13 13 13 13 11 11 6 10 5 5 7 5 7 9 10 9 8 9 14 17 16 15 15 16 17 16 16 19 20 19 16 19 19 18 19 21 21 20 20 20 21 21 23 24 23 21 20 20 19 20 21 20 19 18 20 19 19 16 18 17 15 14 14 14 14 13 13
7 7 9 9 8 10 13 13 14 14 11 12 15 17 18 19 25 21 16 13 15 17 17 13 14 11 11 9 5 5 6 5 4 3 4 7 8 10 11 13 13 15 14 17 17 18 16 17 16 14 17 17 18 20 20 20 20 20 21 21 22 22 23 21 20 21 21 21 22 22 20 21 20 20 20 20 17 19 18 17 16 14 15 15 14 14
8 8 7 11 13 12 12 15 13 12 13 13 16 19 23 24 21 21 20 13 10 8 16 14 13 11 9 13 14 13 8 7 4 4 9 8 4 6 8 11 5 5 14 14 15 16 17 15 15 15 16 16 19 19 18 19 20 20 20 21 20 20 21 21 20 21 21 21 21 21 22 21 20 21 21 20 19 19 18 17 16 15 15 15 15 14
8 9 10 11 12 13 8 12 13 12 11 9 13 22 25 23 22 20 15 17 14 11 13 13 12 8 16 12 7 8 8 13 12 7 5 5 10 8 6 4 4 3 3 13 10 11 11 11 18 18 17 19 20 19 18 19 19 19 18 19 20 19 19 20 19 20 20 21 21 20 21 21 21 20 20 19 18 17 17 17 17 17 16 15 15 15
8 10 13 16 19 19 20 18 16 16 15 15 16 15 13 17 24 22 15 14 11 13 16 12 13 14 11 7 12 12 11 12 10 8 8 11 7 7 7 4 6 4 5 4 6 6 6 7 14 15 17 18 18 18 17 19 19 19 18 19 19 19 19 18 19 20 20 20 19 19 21 20 20 20 18 18 16 16 17 17 16 16 15 14 15 16
9 10 12 14 17 19 23 22 20 17 15 18 19 18 18 17 21 21 14 21 20 15 13 14 17 16 14 11 11 8 9 8 11 8 7 9 7 9 3 1 5 8 8 8 8 9 10 11 11 15 17 17 19 19 19 18 18 17 17 18 18 18 20 18 18 20 20 19 19 18 19 18 17 17 17 17 16 16 16 16 15 14 14 14 14 14
8 12 13 15 17 17 20 21 18 19 19 19 18 18 17 16 17 17 22 19 20 19 17 14 8 11 12 12 11 13 6 5 8 5 1 1 7 8 4 2 5 6 12 12 10 8 8 11 12 13 15 16 18 18 19 17 17 19 19 19 20 19 18 18 18 18 19 19 18 17 18 17 15 16 16 16 16 15 15 15 15 15 15 15 15 13
6 7 10 11 13 15 16 19 20 20 20 20 19 18 17 16 15 14 16 20 24 26 25 21 15 13 13 15 4 11 8 7 6 9 9 6 2 1 6 6 6 9 11 11 9 2 6 9 10 12 14 15 16 17 16 16 17 18 20 19 19 18 18 19 18 18 18 18 17 17 17 17 16 16 16 16 15 15 15 14 13 13 13 14 14 13
8 10 10 11 13 13 13 16 19 20 21 22 21 20 18 16 16 16 15 16 17 19 23 24 20 14 12 16 10 11 8 10 10 10 7 3 7 6 7 8 8 7 8 7 7 7 8 5 9 12 15 17 18 18 17 15 17 18 19 19 20 20 19 19 19 19 17 17 17 17 18 17 17 17 16 16 16 16 15 14 13 13 14 14 15 13
9 8 8 10 13 13 14 15 16 18 18 21 22 20 19 18 16 16 18 18 18 19 21 20 18 12 16 16 8 8 8 12 11 7 8 8 8 8 7 10 10 8 8 8 8 8 8 9 7 11 15 15 16 17 19 18 18 17 18 18 18 17 18 18 19 18 17 17 17 17 17 17 18 17 17 17 16 16 15 15 14 14 15 16 14 13
11 11 11 8 10 11 13 14 14 13 19 18 12 18 19 20 20 21 18 18 18 16 15 16 16 15 12 8 7 8 9 10 11 11 10 10 11 11 9 7 7 8 9 9 8 8 11 8 8 10 8 14 15 18 18 18 18 17 17 15 15 17 15 16 17 17 18 17 17 17 17 17 17 17 17 17 16 16 16 16 15 15 14 13 13 13
12 11 12 9 10 12 12 12 11 16 15 10 12 14 17 20 22 24 22 23 22 23 22 17 16 8 6 7 5 8 9 12 13 14 14 12 13 15 11 7 8 7 8 8 9 9 9 10 10 12 13 13 15 16 16 17 17 16 17 17 18 18 15 16 16 17 17 17 17 17 19 19 17 17 16 16 17 16 16 16 15 15 14 14 14 14
12 12 10 9 10 10 12 10 12 13 9 10 12 18 17 12 14 17 23 26 20 12 10 14 16 14 9 8 7 8 9 11 13 12 13 11 12 12 10 9 10 11 11 11 12 11 10 10 11 11 11 12 13 15 16 18 18 18 18 18 18 17 17 16 16 17 17 17 18 18 19 19 19 17 16 17 16 17 17 16 15 15 13 13 14 13
14 12 10 12 10 12 10 12 14 10 13 16 14 17 12 12 14 16 14 16 15 14 8 6 5 6 6 7 8 10 11 11 10 10 7 13 15 13 12 12 12 12 13 13 13 14 13 12 12 12 11 12 14 14 17 17 18 18 18 18 18 18 17 17 17 18 18 18 18 19 19 19 20 18 17 17 17 17 17 16 15 14 13 13 13 14
6 13 10 11 11 10 12 12 10 11 12 13 10 9 8 7 2 2 2 7 8 9 4 2 4 2 7 8 9 11 11 11 10 7 11 16 17 16 15 13 13 13 14 14 14 14 14 13 12 12 11 11 13 15 13 17 18 17 16 18 18 18 19 20 20 19 19 19 19 19 18 18 18 17 17 17 17 17 16 16 14 14 13 14 14 14
13 16 15 13 12 12 12 12 11 11 11 4 9 8 11 12 12 7 2 7 1 6 1 5 2 3 6 7 9 9 8 10 11 2 13 17 18 16 16 14 14 15 15 15 15 16 16 14 14 15 16 12 13 14 13 15 18 19 18 18 19 20 21 21 20 20 20 20 19 18 18 17 17 18 18 17 17 16 16 16 14 14 13 13 13 13
12 7 8 15 15 13 12 12 12 9 7 2 6 8 10 15 13 8 10 5 3 4 5 4 1 2 3 4 6 4 4 6 7 11 15 17 16 16 15 16 16 17 16 15 15 15 16 16 15 14 14 13 12 13 14 16 18 19 17 19 20 21 21 21 21 20 18 18 18 17 17 16 17 17 17 17 16 15 14 14 13 14 14 13 12 12
9 9 8 15 16 16 16 13 11 11 3 6 8 8 9 11 9 4 7 4 4 3 1 3 3 4 3 3 3 2 3 6 10 12 14 15 15 15 15 15 15 16 16 16 15 16 15 14 13 13 12 10 10 12 14 15 17 18 17 18 19 21 21 20 17 17 17 17 18 17 18 16 17 18 17 16 16 15 14 14 14 14 13 13 12 12
11 10 9 12 17 15 15 16 12 9 5 7 8 8 7 5 7 4 5 11 8 4 4 4 3 3 3 3 4 4 7 8 11 12 14 15 15 15 16 17 17 16 15 15 16 16 14 13 13 13 10 10 10 12 14 15 14 14 15 17 19 20 18 16 16 17 17 17 18 17 17 17 16 16 15 15 14 14 14 13 13 13 14 12 12 12
6 4 9 13 13 12 12 13 12 13 4 8 10 1 12 4 4 3 9 9 4 6 4 4 4 4 4 4 5 6 9 10 11 13 15 16 16 17 17 17 17 16 16 16 15 15 15 13 13 11 10 10 11 12 14 16 15 15 14 17 18 16 15 16 16 17 16 16 16 16 17 16 17 15 13 14 15 15 15 13 13 13 12 12 11 12
1 5 6 10 11 12 12 12 7 3 4 7 8 4 4 3 4 5 7 8 5 4 6 4 5 5 6 5 6 6 8 10 11 13 14 15 17 17 16 16 16 16 15 16 15 15 16 16 13 11 9 10 9 11 11 12 13 13 15 17 13 13 13 14 15 15 15 15 15 16 16 15 16 15 13 14 14 14 14 13 13 12 11 11 11 12
5 6 4 6 6 6 4 4 4 5 6 6 6 4 2 1 2 4 6 6 9 6 7 5 6 6 6 7 6 8 8 9 10 12 12 14 16 16 16 16 16 16 14 14 15 16 16 13 7 8 9 9 8 9 10 12 13 14 15 13 12 12 13 14 15 15 15 15 15 15 14 14 13 14 13 13 14 14 13 14 13 12 11 12 12 11
10 8 9 8 6 8 12 12 9 7 7 7 6 3 2 2 3 5 6 5 7 9 9 8 9 8 6 6 7 8 9 10 11 12 12 13 15 16 14 14 16 15 14 14 14 17 16 12 5 4 6 6 9 8 8 10 13 14 13 13 12 13 12 14 14 14 14 15 14 14 14 15 14 14 13 14 13 13 12 13 13 12 11 12 12 11
9 7 8 6 7 7 4 6 7 7 8 9 8 3 1 1 4 6 8 6 6 8 11 10 11 10 8 7 6 8 9 12 12 13 12 10 12 14 13 14 15 14 13 14 15 15 13 14 6 3 2 4 2 9 11 12 12 12 12 12 14 14 13 14 13 13 13 13 13 14 14 15 13 13 13 14 12 12 12 12 12 12 12 12 12 12
3 8 11 8 9 7 7 9 9 11 11 11 7 2 3 6 8 9 9 9 8 7 9 11 12 11 9 6 8 8 9 11 12 13 13 12 11 13 13 14 14 15 13 11 12 14 13 13 13 11 8 3 3 3 5 9 9 10 11 13 14 14 13 13 13 13 13 14 13 13 13 13 13 14 12 13 12 12 12 12 12 12 13 13 12 12
10 11 6 10 8 9 10 6 11 15 11 0 8 7 5 7 9 10 11 12 11 10 9 11 10 10 11 7 7 7 8 10 12 12 13 11 11 12 13 13 13 13 12 11 12 13 11 12 14 14 12 9 6 6 4 4 7 8 12 12 13 12 14 13 13 13 14 14 13 12 12 12 13 12 12 12 12 7 2 5 11 12 12 12 8 9
6 4 8 9 7 5 4 8 13 9 6 9 13 11 12 12 12 11 11 11 11 10 9 9 11 10 11 11 9 7 8 9 11 12 13 11 11 13 12 12 12 12 11 10 8 11 13 13 14 14 14 11 9 5 5 5 1 4 9 10 11 12 12 12 13 13 14 13 12 12 12 11 12 12 11 12 12 9 6 11 14 11 1 5 8 13
3 4 5 5 5 7 11 12 10 10 11 11 11 13 12 12 12 12 11 11 11 9 9 9 10 11 8 8 8 8 7 8 10 11 12 12 12 12 12 12 12 12 11 11 13 14 14 14 14 14 15 13 9 8 8 8 7 5 2 4 8 10 11 12 12 12 13 12 11 12 12 10 11 11 10 11 10 9 9 7 9 15 15 12 10 11
Wind_Direction
177 209 203 209 213 209 213 220 227 236 251 250 236 227 225 231 239 224 223 185 196 215 213 218 215 197 186 181 181 179 186 198 202 196 220 207 187 173 189 182 186 185 183 182 183 183 181 180 178 181 179 181 183 177 176 174 178 182 174 176 179 174 179 167 175 177 182 180 182 190 192 189 186 197 192 202 208 190 200 145 164 158 185 180 192 191
205 216 216 212 217 220 214 219 232 240 246 259 269 243 221 224 236 218 220 177 201 223 216 219 223 201 206 207 188 178 178 192 209 205 227 204 189 185 185 187 184 180 191 180 181 184 182 181 178 181 179 181 181 180 178 179 180 181 179 178 177 175 179 173 178 177 184 182 185 185 193 195 187 185 196 197 205 209 180 147 162 170 189 174 192 199
209 220 219 216 217 225 225 218 226 233 239 240 243 249 256 228 230 233 222 190 192 208 234 220 225 215 202 210 188 179 198 197 198 209 188 211 200 160 181 196 174 185 193 184 181 185 182 181 178 180 179 183 183 179 179 179 179 181 181 177 176 177 178 176 178 177 183 185 187 189 191 203 192 186 194 201 199 205 203 162 177 191 185 191 191 198
213 221 223 219 217 221 225 227 220 224 238 240 227 239 235 247 224 215 228 218 196 205 212 209 230 223 226 202 201 181 202 199 217 234 206 193 186 179 185 185 179 189 193 185 187 185 183 183 179 181 180 181 180 179 180 181 180 181 183 177 177 178 177 177 177 179 180 182 182 191 196 200 222 181 185 203 192 198 219 178 175 190 194 196 204 197
219 219 209 223 219 217 224 219 221 219 223 227 238 234 239 236 232 249 203 218 238 184 245 241 220 229 229 215 195 175 195 218 210 210 213 197 176 186 174 189 183 193 194 191 186 187 185 185 183 182 180 180 182 182 182 182 181 182 182 178 176 177 179 177 174 177 174 173 176 183 195 197 215 216 175 191 196 193 201 212 176 188 194 192 213 199
231 224 207 209 219 215 222 219 217 223 227 221 226 239 242 240 254 233 252 251 206 214 209 227 245 230 221 224 215 184 181 205 213 231 216 174 200 164 182 184 197 193 192 195 187 187 189 187 183 183 182 183 184 183 183 183 182 180 180 178 176 176 179 179 174 175 171 173 174 175 181 186 190 198 180 191 200 194 193 213 198 183 190 194 202 207
238 219 236 218 209 214 215 226 215 220 232 229 216 217 233 251 255 258 245 215 249 231 206 211 235 228 209 220 219 210 198 195 187 210 206 193 178 184 183 181 188 195 197 200 197 195 190 186 185 183 185 186 185 184 182 183 181 181 178 178 177 176 178 178 175 174 174 172 178 181 184 186 186 189 191 193 205 207 199 209 212 186 187 193 204 202
221 236 221 200 223 215 213 218 217 210 228 230 236 208 218 229 242 248 248 245 244 240 254 209 213 249 232 212 215 217 216 208 197 188 205 201 205 172 186 185 189 198 191 193 204 196 190 186 186 185 185 187 187 182 182 183 182 181 179 178 177 177 177 178 174 177 176 175 178 182 188 190 192 196 194 194 203 212 215 201 209 198 187 185 207 207
210 219 233 204 214 220 218 216 208 207 221 238 224 237 240 228 228 238 248 248 246 254 241 240 209 224 238 236 210 208 216 211 209 205 193 196 194 176 177 186 200 195 197 195 204 195 188 185 187 185 185 188 186 182 183 184 182 181 179 178 177 178 177 177 176 176 180 179 179 182 187 191 198 202 203 197 199 206 208 206 200 207 190 178 194 208
207 228 220 228 210 222 217 209 219 218 223 224 251 221 238 237 235 231 237 241 249 242 245 232 235 234 219 206 235 215 218 211 211 206 200 186 194 186 185 192 199 195 201 192 205 205 188 185 186 185 183 184 188 185 183 182 182 180 179 179 179 179 179 177 176 177 179 181 180 183 188 191 193 200 206 201 193 198 195 203 195 199 198 189 187 199
262 180 235 223 210 223 220 220 219 222 226 226 230 235 208 246 244 231 233 240 240 245 240 238 242 244 248 221 226 229 209 216 209 207 203 187 173 183 192 193 194 202 197 200 212 204 190 185 184 181 183 185 186 183 182 183 183 180 180 180 181 180 178 177 177 177 179 182 182 184 187 190 194 196 200 201 193 191 191 195 196 193 196 205 194 197
246 255 201 230 221 213 239 228 206 223 214 217 224 226 227 219 227 235 227 219 237 241 236 235 238 240 237 212 219 224 223 207 217 212 198 184 191 185 188 192 197 202 196 200 205 201 189 182 184 184 185 184 186 185 182 184 182 181 181 180 180 181 180 180 179 178 180 181 183 186 187 190 193 193 200 200 196 189 191 192 194 192 191 199 205 206
230 230 235 208 223 222 208 239 206 200 209 214 215 217 216 212 203 216 211 217 221 236 225 225 227 237 238 249 233 217 219 210 209 214 198 198 192 178 185 190 195 196 196 194 212 203 185 184 184 186 184 183 185 187 184 184 182 181 180 180 180 181 180 179 179 181 181 182 183 185 187 190 192 197 201 203 201 190 192 191 193 190 192 192 202 203
215 220 225 225 201 206 224 212 210 194 200 208 210 207 208 214 206 217 212 228 235 227 232 233 216 239 244 237 237 255 219 223 211 205 215 207 193 178 173 184 199 189 182 200 199 205 192 184 186 186 184 184 185 188 185 185 184 180 180 179 181 181 181 178 180 180 182 183 183 183 186 188 191 197 203 206 204 198 194 192 196 194 194 193 197 197
224 198 211 215 214 181 211 226 219 219 189 210 214 216 217 222 217 210 215 214 224 238 207 219 238 224 221 222 218 223 251 247 203 195 212 222 194 186 174 182 195 190 196 194 194 195 193 186 185 185 185 184 186 188 187 186 185 181 181 180 181 181 182 180 180 180 182 181 181 181 186 189 193 198 203 206 207 204 198 197 196 198 199 198 197 198
262 255 199 198 215 188 207 211 234 229 226 200 208 225 225 222 237 248 219 229 226 222 229 198 222 222 230 232 226 221 215 232 255 214 195 216 204 175 162 182 201 205 189 181 195 207 194 184 184 186 186 185 186 188 188 186 185 185 183 181 181 181 180 181 180 180 180 179 180 182 185 191 194 195 199 202 205 207 204 200 198 195 203 208 193 197
258 234 306 275 201 205 201 197 213 235 229 188 202 213 221 221 240 248 263 256 248 241 234 215 206 219 240 236 225 224 219 212 213 207 219 228 189 167 177 184 194 211 191 182 188 198 189 183 185 188 187 187 187 187 189 186 186 184 182 181 181 181 180 181 181 178 179 179 178 181 185 190 193 195 198 200 200 203 202 199 198 196 199 203 201 191
304 293 330 318 231 205 207 198 216 218 246 239 207 211 210 230 245 247 250 224 237 243 226 218 219 206 203 222 200 204 224 220 207 205 201 202 194 187 185 186 191 196 186 178 191 194 189 185 185 187 189 190 190 190 189 186 185 183 183 182 181 181 181 182 183 180 178 178 179 181 186 190 193 195 198 201 196 200 198 197 198 199 195 198 200 198
342 290 254 226 283 234 228 235 211 224 220 246 250 177 211 192 216 225 249 235 223 222 238 219 232 235 200 211 187 198 201 210 212 209 209 200 196 201 198 197 197 199 199 180 188 188 194 188 185 188 190 192 191 191 190 187 186 185 185 184 183 184 183 181 182 179 177 178 179 182 186 189 192 195 198 199 197 195 198 198 194 201 195 196 197 194
280 282 281 273 233 249 235 220 229 202 207 229 245 261 222 231 217 216 215 255 254 244 215 230 222 230 209 204 202 210 199 205 211 209 211 214 210 209 213 203 198 200 196 182 174 185 203 203 189 189 191 190 189 189 191 189 188 188 186 184 185 184 182 181 182 179 179 181 181 182 184 188 191 195 195 196 195 193 196 198 195 196 196 196 193 192
277 258 276 269 267 240 238 207 222 226 215 204 230 231 233 234 231 229 212 220 230 242 242 235 222 224 227 206 204 208 203 204 207 211 211 214 214 211 209 207 201 200 196 185 182 184 196 205 196 190 191 191 189 187 190 190 191 190 187 186 185 183 183 184 183 181 182 180 182 180 183 186 189 192 194 195 194 195 193 195 198 194 199 191 198 190
249 248 255 264 264 230 238 220 215 226 235 225 217 230 221 220 216 214 221 203 224 234 241 237 246 244 201 195 200 206 181 194 210 212 210 213 219 223 206 204 209 202 193 192 182 186 186 209 207 193 188 189 188 186 190 191 191 191 191 188 187 185 186 185 184 183 180 181 182 182 184 185 187 191 192 195 193 196 194 194 196 195 197 194 194 194
347 317 285 263 257 260 247 235 224 236 242 246 226 220 226 223 225 223 225 215 211 226 241 249 269 240 53 37 177 199 214 183 190 202 208 207 213 219 215 205 202 200 192 195 196 188 186 202 205 193 185 188 189 188 189 191 191 193 192 189 187 186 187 186 185 182 179 181 181 183 182 183 185 188 191 194 193 196 196 193 194 195 195 197 191 194
350 267 265 260 276 276 281 281 293 299 280 246 244 271 250 224 223 226 224 224 231 209 217 226 236 242 107 142 171 195 201 183 203 193 213 226 218 212 208 211 194 190 194 200 202 197 187 199 199 188 183 187 189 187 188 191 193 193 192 191 189 190 186 185 183 180 180 180 182 181 181 184 186 188 190 194 195 197 197 193 192 192 195 197 196 190
287 210 250 265 249 252 252 251 251 233 247 245 237 221 235 240 227 235 238 235 239 224 217 210 215 223 142 134 60 46 148 187 187 191 201 223 209 219 204 205 204 191 194 198 200 202 199 189 185 186 184 185 188 190 189 190 191 193 193 193 192 190 186 185 182 180 180 182 182 183 183 185 186 188 191 193 195 196 197 197 193 191 194 195 202 194
277 273 254 239 232 224 218 213 210 219 226 238 247 255 238 227 229 222 226 231 240 277 261 223 218 219 224 163 171 195 220 258 272 219 183 195 250 239 214 198 76 271 183 190 197 201 205 174 180 183 182 184 189 190 187 189 192 193 194 196 193 189 186 186 183 181 180 182 182 183 185 187 188 190 192 194 196 196 196 199 197 190 193 196 199 199
267 266 256 253 252 256 275 339 314 317 320 294 266 237 224 221 232 240 236 229 220 226 244 247 253 216 210 206 194 212 215 213 204 224 263 218 181 200 253 342 204 39 162 178 198 208 204 177 170 176 179 184 190 190 187 190 193 194 193 195 194 191 188 185 184 181 180 183 184 183 185 187 190 190 191 192 195 195 196 199 197 194 191 194 197 198
257 258 247 248 248 257 273 277 297 302 287 290 284 286 293 293 247 227 229 237 232 226 233 228 239 259 283 210 164 198 200 186 190 198 201 193 179 188 153 119 318 175 175 147 180 210 209 176 165 177 181 185 189 191 190 191 192 194 192 192 194 192 189 186 185 182 181 183 184 183 185 188 189 191 190 191 193 196 197 198 198 196 190 191 196 198
260 260 252 253 257 257 268 269 268 276 291 292 291 295 289 301 294 231 238 238 234 230 238 216 230 244 243 245 126 49 53 27 42 39 34 37 99 90 92 112 200 195 180 180 188 192 199 192 177 179 185 188 190 192 193 191 192 192 191 191 192 194 191 186 185 183 182 183 185 183 184 185 187 190 187 189 191 197 198 197 198 195 191 189 196 198
272 252 264 259 262 262 264 270 272 273 276 273 271 266 265 274 289 260 227 238 241 245 245 238 246 271 257 239 115 32 13 357 10 353 68 120 44 34 10 236 210 209 177 181 174 187 197 199 187 184 186 190 193 194 195 191 190 193 192 191 192 193 189 183 186 185 185 185 185 181 180 182 183 186 186 187 189 194 195 197 196 196 195 191 196 197
254 263 273 272 270 260 259 269 271 263 262 263 263 262 261 259 261 253 234 229 237 237 233 236 224 235 249 262 293 43 307 320 322 295 356 20 236 139 30 358 11 359 2 2 352 288 183 194 197 190 190 193 198 198 198 193 192 193 194 192 192 192 189 185 184 186 186 185 183 179 177 180 182 183 184 185 186 189 193 195 194 195 193 193 193 197
222 259 261 258 259 260 257 264 266 264 258 258 255 252 248 248 249 234 239 239 245 243 236 233 230 233 255 266 256 11 309 301 301 305 285 12 12 347 324 323 346 346 345 353 333 343 318 258 224 202 198 199 199 199 200 197 194 193 196 191 193 192 189 187 186 186 186 183 182 179 178 180 180 182 181 181 184 185 189 192 195 195 194 195 192 195
242 248 259 261 257 259 257 252 257 258 257 245 240 240 241 240 239 242 243 244 244 242 229 225 232 236 238 242 314 328 313 299 296 312 333 340 334 330 305 306 324 324 314 318 311 320 308 283 253 210 209 210 205 202 201 198 197 195 196 192 192 190 190 187 186 184 185 185 182 181 179 178 179 180 179 181 181 181 184 189 193 194 195 196 194 192
257 253 247 250 262 265 265 264 265 264 240 238 238 239 232 236 230 237 245 248 242 239 243 237 234 236 244 294 288 324 310 310 311 310 306 305 301 299 296 298 313 311 300 303 322 311 299 314 301 303 252 214 212 211 206 201 199 195 195 190 186 192 191 184 184 184 185 184 183 182 181 180 178 180 180 179 179 179 183 187 191 192 193 194 193 194
263 258 254 242 252 257 261 264 261 244 248 259 253 257 244 235 237 244 246 245 245 236 237 247 252 254 256 351 328 303 319 307 306 303 304 308 296 290 302 316 312 315 306 300 305 311 315 307 295 279 285 275 226 214 209 203 200 191 190 187 187 189 189 184 183 182 184 185 184 184 186 187 182 180 178 178 178 179 182 184 187 189 191 194 194 195
250 252 258 249 247 256 258 254 254 250 263 270 260 264 261 267 266 252 240 238 240 244 237 247 255 260 265 304 309 307 306 305 294 293 289 312 2 2 349 333 328 321 317 315 311 301 294 295 294 286 276 272 262 219 209 204 200 193 189 187 185 186 188 184 182 181 182 185 186 184 185 185 189 181 180 179 179 181 183 184 185 188 190 196 199 198
260 254 246 255 235 246 246 248 254 286 271 251 246 241 240 242 245 244 249 238 218 221 226 237 249 261 285 325 321 318 306 300 288 275 20 19 2 353 349 333 322 318 314 311 308 306 304 295 282 277 266 256 259 239 207 203 197 194 187 186 185 185 186 184 183 183 183 186 184 185 186 186 188 183 181 179 181 183 183 183 184 186 188 195 200 199
256 250 241 251 244 244 249 254 253 247 248 240 239 336 326 302 288 82 156 275 241 206 186 195 257 336 341 336 331 316 305 270 259 232 21 358 354 342 339 334 326 319 316 315 311 303 301 299 300 294 280 252 245 246 216 198 193 190 184 184 181 183 185 186 186 184 183 185 185 183 184 185 184 181 181 181 184 184 184 184 182 186 186 194 200 205
223 237 244 232 246 236 237 243 243 250 253 30 342 341 352 349 333 343 267 243 259 316 121 288 245 360 343 325 320 306 277 249 234 83 1 347 338 339 331 333 328 324 318 313 310 306 304 313 312 302 294 267 239 237 226 195 190 190 185 183 182 184 186 188 185 185 185 186 184 183 185 185 184 183 182 183 185 185 184 184 184 186 187 195 202 209
246 249 243 236 235 238 237 234 239 241 259 48 10 341 325 324 340 285 224 213 81 16 19 334 360 2 320 307 308 311 334 288 322 339 337 333 330 329 333 333 332 323 319 313 311 315 316 310 298 285 272 259 241 231 218 196 190 190 185 184 183 184 188 188 187 186 183 181 182 184 185 185 184 184 184 184 184 186 185 185 186 188 189 196 201 205
244 220 209 234 232 228 234 240 244 241 140 1 359 338 331 328 324 277 234 60 64 58 49 34 16 9 342 323 337 310 356 327 313 321 325 332 331 334 334 332 329 325 318 317 317 321 306 298 292 283 268 257 238 227 212 199 191 189 184 184 186 187 192 189 183 181 179 181 183 184 185 185 184 185 185 184 185 184 186 186 188 188 188 195 199 204
250 247 235 226 231 230 225 234 237 244 84 333 347 336 8 311 235 236 12 315 335 48 37 26 15 4 348 358 355 345 334 326 327 333 337 339 338 334 331 332 330 327 322 315 315 312 307 300 296 284 267 251 235 215 209 199 189 187 180 185 191 192 190 181 179 180 179 181 183 183 183 183 181 183 183 183 181 182 186 186 189 189 190 196 197 202
295 273 225 215 223 230 232 237 234 241 97 358 347 300 38 344 25 350 325 309 32 11 11 32 12 22 357 6 5 345 347 351 349 351 347 344 341 336 332 330 329 324 322 320 319 319 316 305 295 283 260 243 223 209 209 196 188 186 180 190 192 191 185 180 179 178 178 178 179 180 181 182 179 180 184 184 182 183 184 184 187 187 188 193 193 196
317 253 263 231 214 221 221 228 238 358 11 16 21 12 5 38 344 333 341 333 14 37 347 3 9 356 353 340 340 349 349 351 353 360 351 347 340 331 328 326 327 323 322 326 320 317 320 310 285 272 253 244 217 206 199 191 186 185 185 193 190 190 185 177 178 177 177 177 178 178 179 178 177 179 184 180 179 181 181 182 186 183 186 189 191 193
61 294 330 283 357 299 280 324 351 321 359 6 7 12 345 301 348 323 333 331 332 351 342 326 344 341 346 331 337 348 347 356 355 358 350 338 331 326 326 323 325 325 322 322 322 326 322 308 264 257 240 229 206 191 193 195 192 186 190 191 187 189 184 176 175 175 176 176 175 174 176 175 175 179 182 179 177 181 181 182 183 185 187 188 192 195
314 298 300 294 277 301 285 267 271 292 310 327 345 339 13 333 307 317 320 329 322 318 318 321 321 325 328 336 340 352 352 350 355 359 351 337 329 324 321 322 325 329 334 335 341 339 335 329 291 306 304 263 189 187 189 198 196 192 192 189 188 186 178 174 173 176 175 175 174 175 175 172 174 176 183 178 180 182 183 182 184 185 186 187 191 196
324 327 318 284 296 308 271 27 343 324 321 313 320 343 170 66 312 317 311 315 298 315 313 308 309 304 307 324 353 340 347 352 358 354 345 329 324 321 322 322 331 339 338 343 338 337 341 358 355 343 292 321 208 190 189 199 199 193 192 195 188 185 175 174 171 173 173 173 172 173 173 172 175 175 180 181 181 183 184 184 186 188 187 190 193 196
333 7 316 292 286 268 277 330 331 324 314 293 288 327 337 348 328 312 310 301 292 275 285 296 303 303 308 322 355 337 347 355 358 351 343 336 327 329 328 327 328 343 337 333 342 346 355 1 15 24 19 1 13 326 222 200 201 189 196 194 192 185 173 171 170 170 173 171 173 172 174 173 167 172 180 182 184 183 185 188 192 191 188 192 196 199
300 305 300 328 305 296 284 289 347 321 283 83 45 359 333 315 314 310 306 309 300 285 283 288 297 303 299 319 331 332 350 357 357 347 341 338 335 330 328 330 334 329 340 348 357 358 1 360 12 21 29 26 23 17 337 197 198 187 192 190 193 171 172 174 169 170 173 173 172 173 172 172 171 181 183 178 188 168 103 207 200 191 189 194 207 208
306 306 325 317 309 286 353 346 343 332 306 324 323 328 329 325 315 306 301 291 291 287 283 294 301 298 300 311 322 329 360 351 351 345 342 344 334 327 325 332 331 325 342 355 2 7 6 11 13 8 9 21 31 29 48 20 31 182 188 192 187 173 180 170 173 177 177 174 173 169 171 174 174 181 188 178 182 122 99 61 55 38 40 128 35 48
330 304 323 321 316 304 320 321 321 304 290 290 304 312 312 310 307 304 299 293 288 289 286 281 287 295 299 300 311 319 355 349 345 344 348 348 344 339 333 330 327 335 333 358 18 16 14 16 12 12 15 2 18 39 42 41 43 30 335 224 187 176 177 173 176 179 176 175 173 167 167 172 176 178 193 185 173 138 129 112 54 47 53 69 80 72